Simultaneous Nadir Overpasses (SNOs) Predictions

Prediction of SNOs between GOES-16 and METOP-C Satellite Orbit:

Table of predicted SNOs for the next 14.0 days since TLE Epoch: 5/7/2022
Index Date Time (GOES-16) GOES-16 Lat,Lon METOP-C Lat,Lon Distance(km) Time Diff (sec)
1 05/08/2022 02:36:57 -0.05, -75.19 -0.27, -76.05 98.75 80
2 05/09/2022 02:13:38 -0.05, -75.20 0.88, -71.06 471.07 80
3 05/10/2022 14:32:28 0.05, -75.22 0.12, -75.62 45.59 80
4 05/13/2022 02:33:28 -0.04, -75.23 -0.03, -75.23 2.25 80
5 05/15/2022 14:31:38 0.04, -75.28 -0.09, -74.79 56.14 80
6 05/17/2022 02:50:37 -0.04, -75.28 -0.97, -79.38 467.17 80
7 05/18/2022 02:27:18 -0.03, -75.29 0.19, -74.39 103.35 80
8 05/19/2022 14:46:07 0.03, -75.32 0.84, -78.94 412.48 80
9 05/20/2022 14:28:07 0.02, -75.34 -0.26, -73.94 158.39 80
